Regional Weather Roundup
Issued by NWS

Home | Current Version | Previous Version | Text Only | Print | Product List | Glossary Off
Versions: 1 2 3 4 5 6 7 8 9 10 11 12 13 14 15 16 17 18 19 20 21 22 23 24 25 26 27 28 29 30 31 32 33 34 35 36 37 38 39 40 41 42 43 44 45 46 47 48 49 50

000
ASUS43 KTOP 202259
RWRKS

WEATHER ROUNDUP FOR KANSAS
NATIONAL WEATHER SERVICE GOODLAND KS
600 PM CDT SAT SEP 20 2014

NOTE:  "FAIR" INDICATES FEW OR NO CLOUDS BELOW 12,000 FEET WITH NO
SIGNIFICANT WEATHER AND/OR OBSTRUCTIONS TO VISIBILITY.

KSZ001>006-013>018-027>032-041>047-210000-
NORTHWEST KANSAS

CITY           SKY/WX    TMP DP  RH WIND       PRES   REMARKS
GOODLAND       SUNNY     83  50  31 NE15      30.13S
HAYS           SUNNY     86  66  51 N14       29.99R
HILL CITY      SUNNY     88  53  30 NE10      30.02S
RUSSELL        SUNNY     87  67  51 N14       29.95S
$$

KSZ061>065-074>080-084>089-210000-
SOUTHWEST KANSAS

CITY           SKY/WX    TMP DP  RH WIND       PRES   REMARKS
DODGE CITY     MOSUNNY   88  61  40 S8        29.98S
ELKHART          N/A     90  59  35 NE6         N/A
GARDEN CITY    SUNNY     89  59  36 N13       30.01S
GREAT BEND     CLOUDY    82  70  65 SE5       29.95S
LIBERAL        PTSUNNY   90  59  35 CALM      30.01S
$$

KSZ066>073-081>083-090>101-210000-
SOUTHEAST KANSAS

CITY           SKY/WX    TMP DP  RH WIND       PRES   REMARKS
CHANUTE        MOSUNNY   84  70  62 SW10      29.97R
HUTCHINSON     SUNNY     91  61  36 S13       29.93F
NEWTON         SUNNY     90  61  37 SW12      29.97F
PARSONS        SUNNY     84  71  65 SW6       29.98S
WICHITA INTL   MOSUNNY   91  58  32 SW10      29.94S
WICHITA JABRA  MOSUNNY   89  60  37 S10       29.95R
WINFIELD       MOSUNNY   87  66  49 S12       29.96S
$$

KSZ007>012-019>026-033>040-048>060-102>105-210000-
NORTHEAST KANSAS

CITY           SKY/WX    TMP DP  RH WIND       PRES   REMARKS
CONCORDIA      SUNNY     85  67  54 NW7       29.95S
EMPORIA        MOSUNNY   86  67  52 S8        29.95R
LAWRENCE       CLOUDY    78  69  73 SW5       29.91F
MANHATTAN      PTSUNNY   76  69  79 S8        29.95R
OLATHE IND     CLOUDY    78  70  76 S9        29.94F
OLATHE EXE     CLOUDY    78  70  76 S7        29.93F
SALINA         LGT RAIN  85  71  63 NW14G20   29.93S
TOPEKA BILLARD PTSUNNY   75  72  90 CALM      29.93F
TOPEKA FORBES  CLOUDY    75  70  84 SW10      29.94F
$$



USA.gov is the U.S. government's official web portal to all federal, state and local government web resources and services.